Back to catalog

STARLINK-34864

AliveCommunicationsVLEO
NORAD 65330·PAYLOAD·🇺🇸 United States

Launched Aug 27, 2025 from Cape Canaveral Space Force Station

Loading…

Next Passes (next 24 hours)

TLE

FreshSource: CelesTrak SupGP

Epoch: Sep 14, 2026, 20:52 UTC

1 65330C 25189H   26257.86993056  .00044757  00000+0  14394-2 0  2576
2 65330  53.1586  46.8125 0001065  84.6343  79.0061 15.31677363    19

Track STARLINK-34864 in real time with AllMySat

Download on the App Store